Location: Unspecified
(50.7693°N, 0.0000°E)
Time: 09:01:38
(UTC+00:00)

A-11 Canister half - Pass Details

Date: 27 June 2019
Orbit: 1526 x 1683 km, 47.3° (Epoch: 16 July)

Event Time Altitude Azimuth Distance (km) Brightness Sun altitude
Rises 09:13:39 0° 287° (WNW) 4,695 11.1 47.4°
Reaches altitude 10° 09:16:58 10° 279° (W) 3,702 10.7 47.9°
Maximum altitude 09:25:12 37° 217° (SW) 2,203 10.2 49.0°
Drops below altitude 10° 09:33:27 10° 154° (SSE) 3,707 11.7 50.2°
Sets 09:36:48 0° 146° (SSE) 4,702 12.1 50.6°
